Weather History for Southend-On-Sea, United Kingdom

Change the Weather History Date:

Monday, October 29, 2012

  Actual Average Record
Temperature  
Mean Temperature 48 °F -  
Max Temperature 53 °F 49 °F 64 °F (2005)
Min Temperature 44 °F 40 °F 28 °F (1997)
Degree Days  
Heating Degree Days 16    
Moisture  
Dew Point 45 °F    
Average Humidity 86    
Maximum Humidity 93    
Minimum Humidity 77    
Precipitation  
Precipitation 0.00 in - - ()
Sea Level Pressure  
Sea Level Pressure 29.77 in    
Wind  
Wind Speed 8 mph ()    
Max Wind Speed 14 mph    
Max Gust Speed -    
Visibility 6.2 miles    
Events Rain    
Averages and records for this station are not official NWS values.
T = Trace of Precipitation, MM = Missing Value Source: Averaged Metar Reports

Daily Weather History Graph

Daily Weather History Graph

Search for Another Location

Airport:

Trip Planner

Search our weather history database for the weather conditions in past years. The results will help you decide how hot, cold, wet, or windy it might be!

Date:

Astronomy

Oct. 29, 2012 Rise Set
Actual Time 6:46 AM GMT 4:34 PM GMT
Civil Twilight 6:11 AM GMT 5:09 PM GMT
Nautical Twilight 5:31 AM GMT 5:49 PM GMT
Astronomical Twilight 4:53 AM GMT 6:27 PM GMT
Moon 4:13 PM GMT (10/29) 6:24 AM GMT (10/29)
Length of Visible Light 10h 58m
Length of Day
9h 48m
Full, 100% of the Moon is Illuminated
Oct 29
Full
Oct 29
Full
Nov 7
Last Quarter
Nov 13
New
Nov 20
First Quarter

Hourly Weather History & Observations

Time (GMT) Temp. Windchill Dew Point Humidity Pressure Visibility Wind Dir Wind Speed Gust Speed Precip Events Conditions
12:50 AM 44.6 °F 38.8 °F 42.8 °F 93% 29.86 in 6.2 mi SW 11.5 mph - N/A   Partly Cloudy
1:50 AM 46.4 °F 41.9 °F 42.8 °F 87% 29.83 in 6.2 mi SSW 9.2 mph - N/A   Partly Cloudy
2:50 AM 44.6 °F 40.2 °F 41.0 °F 87% 29.83 in 6.2 mi SW 8.1 mph - N/A   Partly Cloudy
3:50 AM 44.6 °F 40.2 °F 41.0 °F 87% 29.83 in 6.2 mi SW 8.1 mph - N/A   Partly Cloudy
4:50 AM 46.4 °F 42.9 °F 42.8 °F 87% 29.80 in 6.2 mi SSW 6.9 mph - N/A   Partly Cloudy
5:50 AM 46.4 °F 41.9 °F 42.8 °F 87% 29.80 in - SSW 9.2 mph - N/A   Clear
6:20 AM 46.4 °F 42.4 °F 42.8 °F 87% 29.80 in - SSW 8.1 mph - N/A   Clear
6:50 AM 46.4 °F 41.9 °F 42.8 °F 87% 29.80 in - SSW 9.2 mph - N/A   Clear
7:20 AM 48.2 °F - 42.8 °F 82% 29.80 in - SSW 10.4 mph - N/A   Clear
7:50 AM 46.4 °F 41.9 °F 42.8 °F 87% 29.80 in - SSW 9.2 mph - N/A   Clear
8:20 AM 48.2 °F - 44.6 °F 87% 29.80 in - SW 9.2 mph - N/A   Clear
8:50 AM 48.2 °F - 44.6 °F 87% 29.80 in - SW 10.4 mph - N/A   Clear
9:20 AM 50.0 °F - 44.6 °F 82% 29.80 in 6.2 mi SW 9.2 mph - N/A   Partly Cloudy
9:50 AM 50.0 °F - 46.4 °F 87% 29.80 in 6.2 mi SSW 10.4 mph - N/A   Partly Cloudy
10:20 AM 51.8 °F - 46.4 °F 82% 29.80 in 6.2 mi SW 10.4 mph - N/A   Partly Cloudy
10:50 AM 51.8 °F - 46.4 °F 82% 29.80 in 6.2 mi SW 10.4 mph - N/A   Partly Cloudy
11:20 AM 51.8 °F - 46.4 °F 82% 29.77 in 6.2 mi SW 11.5 mph - N/A   Scattered Clouds
11:50 AM 53.6 °F - 46.4 °F 77% 29.77 in 6.2 mi SW 12.7 mph - N/A   Scattered Clouds
12:20 PM 53.6 °F - 46.4 °F 77% 29.77 in 6.2 mi WSW 13.8 mph - N/A   Scattered Clouds
12:50 PM 53.6 °F - 46.4 °F 77% 29.74 in 6.2 mi SW 13.8 mph - N/A   Mostly Cloudy
1:20 PM 53.6 °F - 46.4 °F 77% 29.74 in 6.2 mi WSW 10.4 mph - N/A   Mostly Cloudy
1:50 PM 53.6 °F - 46.4 °F 77% 29.74 in 6.2 mi West 9.2 mph - N/A   Mostly Cloudy
2:20 PM 51.8 °F - 46.4 °F 82% 29.74 in 6.2 mi West 6.9 mph - N/A Rain Light Rain Showers
2:50 PM 51.8 °F - 46.4 °F 82% 29.74 in 6.2 mi West 9.2 mph - N/A Rain Rain Showers
3:20 PM 51.8 °F - 46.4 °F 82% 29.74 in 6.2 mi West 6.9 mph - N/A   Partly Cloudy
3:50 PM 51.8 °F - 46.4 °F 82% 29.74 in 6.2 mi West 5.8 mph - N/A   Partly Cloudy
4:20 PM 50.0 °F - 46.4 °F 87% 29.74 in 6.2 mi WSW 5.8 mph - N/A   Partly Cloudy
4:50 PM 50.0 °F - 46.4 °F 87% 29.74 in 6.2 mi West 4.6 mph - N/A   Scattered Clouds
5:20 PM 50.0 °F - 46.4 °F 87% 29.74 in 6.2 mi West 4.6 mph - N/A   Mostly Cloudy
5:50 PM 50.0 °F - 46.4 °F 87% 29.74 in 6.2 mi West 6.9 mph - N/A Rain Light Rain Showers
6:20 PM 50.0 °F - 46.4 °F 87% 29.74 in 6.2 mi WNW 6.9 mph - N/A   Mostly Cloudy
6:50 PM 50.0 °F - 46.4 °F 87% 29.74 in 6.2 mi West 6.9 mph - N/A Rain Light Rain Showers
7:20 PM 50.0 °F - 46.4 °F 87% 29.74 in 6.2 mi West 4.6 mph - N/A   Mostly Cloudy
7:50 PM 50.0 °F - 46.4 °F 87% 29.74 in 6.2 mi WSW 4.6 mph - N/A   Scattered Clouds
8:20 PM 48.2 °F - 44.6 °F 87% 29.74 in 6.2 mi WSW 6.9 mph - N/A   Partly Cloudy
8:50 PM 48.2 °F - 46.4 °F 93% 29.74 in 6.2 mi WSW 6.9 mph - N/A   Partly Cloudy
9:20 PM 48.2 °F - 46.4 °F 93% 29.71 in 6.2 mi WSW 5.8 mph - N/A   Partly Cloudy
9:50 PM 48.2 °F - 44.6 °F 87% 29.71 in - WSW 6.9 mph - N/A   Clear
10:20 PM 48.2 °F - 46.4 °F 93% 29.71 in - West 6.9 mph - N/A   Clear
10:50 PM 48.2 °F - 46.4 °F 93% 29.71 in - West 6.9 mph - N/A   Clear
11:50 PM 48.2 °F - 46.4 °F 93% 29.71 in - West 5.8 mph - N/A   Clear